Weather History for Crookston, MN

Change the Weather History Date:

Tuesday, October 29, 2013

  Actual Average Record
Temperature  
Mean Temperature 28 °F -  
Max Temperature 37 °F 42 °F 62 °F (2007)
Min Temperature 19 °F 28 °F 19 °F (2013)
Degree Days  
Heating Degree Days 37    
Moisture  
Dew Point 20 °F    
Average Humidity 71    
Maximum Humidity 93    
Minimum Humidity 48    
Precipitation  
Precipitation 0.00 in - - ()
Sea Level Pressure  
Sea Level Pressure 30.30 in    
Wind  
Wind Speed 2 mph (NE)    
Max Wind Speed 7 mph    
Max Gust Speed -    
Visibility 10 miles    
Events      
Averages and records for this station are not official NWS values.
T = Trace of Precipitation, MM = Missing Value Source: NWS Daily Summary

Daily Weather History Graph

Daily Weather History Graph

Search for Another Location

Airport:

Trip Planner

Search our weather history database for the weather conditions in past years. The results will help you decide how hot, cold, wet, or windy it might be!

Date:

Astronomy

Oct. 29, 2013 Rise Set
Actual Time 8:06 AM CDT 6:12 PM CDT
Civil Twilight 7:34 AM CDT 6:44 PM CDT
Nautical Twilight 6:58 AM CDT 7:21 PM CDT
Astronomical Twilight 6:22 AM CDT 7:57 PM CDT
Moon 2:36 AM CDT (10/29) 3:46 PM CDT (10/29)
Length of Visible Light 11h 10m
Length of Day
10h 05m
Waning Crescent, 25% of the Moon is Illuminated
Oct 29
Waning Crescent
Nov 3
New
Nov 9
First Quarter
Nov 17
Full
Nov 25
Last Quarter

Hourly Weather History & Observations

Time (CDT) Temp. Windchill Dew Point Humidity Pressure Visibility Wind Dir Wind Speed Gust Speed Precip Events Conditions
12:14 AM 23.0 °F 18.4 °F 15.8 °F 74% 30.49 in 10.0 mi NE 3.5 mph - N/A   Clear
12:34 AM 21.2 °F 16.4 °F 15.8 °F 80% 30.49 in 10.0 mi NE 3.5 mph - N/A   Clear
12:55 AM 21.2 °F 14.9 °F 15.8 °F 80% 30.49 in 10.0 mi NE 4.6 mph - N/A   Clear
1:14 AM 21.2 °F 16.4 °F 15.8 °F 80% 30.48 in 10.0 mi NE 3.5 mph - N/A   Clear
1:34 AM 21.2 °F - 15.8 °F 80% 30.48 in 10.0 mi Calm Calm - N/A   Clear
1:55 AM 21.2 °F - 15.8 °F 80% 30.47 in 10.0 mi Calm Calm - N/A   Clear
2:14 AM 21.2 °F - 15.8 °F 80% 30.47 in 10.0 mi Calm Calm - N/A   Clear
2:34 AM 21.2 °F - 17.6 °F 86% 30.47 in 10.0 mi Calm Calm - N/A   Clear
2:55 AM 21.2 °F - 17.6 °F 86% 30.47 in 10.0 mi Calm Calm - N/A   Clear
3:14 AM 21.2 °F 16.4 °F 17.6 °F 86% 30.46 in 10.0 mi North 3.5 mph - N/A   Clear
3:34 AM 21.2 °F - 17.6 °F 86% 30.46 in 10.0 mi Calm Calm - N/A   Clear
3:55 AM 21.2 °F - 17.6 °F 86% 30.45 in 10.0 mi Calm Calm - N/A   Clear
4:14 AM 19.4 °F 14.3 °F 17.6 °F 93% 30.44 in 10.0 mi North 3.5 mph - N/A   Clear
4:34 AM 19.4 °F 14.3 °F 15.8 °F 86% 30.44 in 10.0 mi NNE 3.5 mph - N/A   Clear
4:55 AM 19.4 °F 11.5 °F 15.8 °F 86% 30.43 in 10.0 mi NNE 5.8 mph - N/A   Clear
5:14 AM 21.2 °F 13.6 °F 15.8 °F 80% 30.43 in 10.0 mi NE 5.8 mph - N/A   Clear
5:34 AM 21.2 °F 13.6 °F 15.8 °F 80% 30.42 in 10.0 mi NE 5.8 mph - N/A   Clear
5:55 AM 21.2 °F 13.6 °F 15.8 °F 80% 30.41 in 10.0 mi ENE 5.8 mph - N/A   Clear
6:14 AM 21.2 °F 13.6 °F 17.6 °F 86% 30.40 in 10.0 mi East 5.8 mph - N/A   Clear
6:35 AM 21.2 °F 12.6 °F 17.6 °F 86% 30.39 in 10.0 mi East 6.9 mph - N/A   Clear
6:55 AM 21.2 °F 12.6 °F 17.6 °F 86% 30.38 in 10.0 mi East 6.9 mph - N/A   Clear
7:14 AM 21.2 °F 13.6 °F 17.6 °F 86% 30.37 in 10.0 mi East 5.8 mph - N/A   Clear
7:35 AM 21.2 °F 16.4 °F 17.6 °F 86% 30.36 in 10.0 mi East 3.5 mph - N/A   Clear
7:54 AM 21.2 °F 16.4 °F 17.6 °F 86% 30.35 in 10.0 mi ENE 3.5 mph - N/A   Clear
8:14 AM 21.2 °F - 17.6 °F 86% 30.35 in 10.0 mi Calm Calm - N/A   Scattered Clouds
8:35 AM 21.2 °F 16.4 °F 17.6 °F 86% 30.35 in 10.0 mi ENE 3.5 mph - N/A   Overcast
8:54 AM 21.2 °F - 17.6 °F 86% 30.35 in 10.0 mi Calm Calm - N/A   Overcast
9:14 AM 23.0 °F 17.0 °F 19.4 °F 86% 30.36 in 10.0 mi East 4.6 mph - N/A   Overcast
9:35 AM 24.8 °F 20.5 °F 19.4 °F 80% 30.35 in 10.0 mi SE 3.5 mph - N/A   Overcast
9:54 AM 26.6 °F - 19.4 °F 74% 30.35 in 10.0 mi Calm Calm - N/A   Overcast
10:14 AM 26.6 °F - 19.4 °F 74% 30.35 in 10.0 mi Calm Calm - N/A   Mostly Cloudy
10:35 AM 26.6 °F - 21.2 °F 80% 30.35 in 10.0 mi Calm Calm - N/A   Mostly Cloudy
10:54 AM 28.4 °F - 21.2 °F 74% 30.35 in 10.0 mi Calm Calm - N/A   Overcast
11:15 AM 30.2 °F - 21.2 °F 69% 30.36 in 10.0 mi Calm Calm - N/A   Overcast
11:34 AM 30.2 °F - 21.2 °F 69% 30.35 in 10.0 mi Calm Calm - N/A   Overcast
11:54 AM 32.0 °F - 21.2 °F 64% 30.34 in 10.0 mi Calm Calm - N/A   Scattered Clouds
12:14 PM 33.8 °F - 21.2 °F 60% 30.32 in 10.0 mi Calm Calm - N/A   Clear
12:34 PM 33.8 °F - 21.2 °F 60% 30.31 in 10.0 mi Calm Calm - N/A   Clear
12:55 PM 35.6 °F - 21.2 °F 56% 30.30 in 10.0 mi Calm Calm - N/A   Clear
1:14 PM 33.8 °F - 21.2 °F 60% 30.29 in 10.0 mi Calm Calm - N/A   Clear
1:34 PM 35.6 °F - 21.2 °F 56% 30.28 in 10.0 mi Calm Calm - N/A   Scattered Clouds
1:55 PM 35.6 °F - 19.4 °F 52% 30.26 in 10.0 mi Calm Calm - N/A   Mostly Cloudy
2:14 PM 37.4 °F - 21.2 °F 52% 30.25 in 10.0 mi Calm Calm - N/A   Scattered Clouds
2:34 PM 37.4 °F 32.8 °F 19.4 °F 48% 30.24 in 10.0 mi SSE 5.8 mph - N/A   Scattered Clouds
2:55 PM 37.4 °F 34.9 °F 21.2 °F 52% 30.24 in 10.0 mi SW 3.5 mph - N/A   Mostly Cloudy
3:14 PM 37.4 °F - 21.2 °F 52% 30.22 in 10.0 mi Calm Calm - N/A   Scattered Clouds
3:34 PM 37.4 °F 34.9 °F 21.2 °F 52% 30.21 in 10.0 mi WNW 3.5 mph - N/A   Clear
3:55 PM 37.4 °F 34.9 °F 21.2 °F 52% 30.20 in 10.0 mi West 3.5 mph - N/A   Scattered Clouds
4:14 PM 37.4 °F - 21.2 °F 52% 30.20 in 10.0 mi Calm Calm - N/A   Mostly Cloudy
4:35 PM 37.4 °F - 21.2 °F 52% 30.19 in 10.0 mi Calm Calm - N/A   Overcast
4:54 PM 37.4 °F - 21.2 °F 52% 30.18 in 10.0 mi Calm Calm - N/A   Overcast
5:14 PM 37.4 °F - 21.2 °F 52% 30.18 in 10.0 mi Calm Calm - N/A   Overcast
5:35 PM 37.4 °F - 21.2 °F 52% 30.17 in 10.0 mi Calm Calm - N/A   Overcast
5:54 PM 37.4 °F 34.9 °F 23.0 °F 56% 30.17 in 10.0 mi WNW 3.5 mph - N/A   Overcast
6:15 PM 35.6 °F - 23.0 °F 60% 30.16 in 10.0 mi Calm Calm - N/A   Overcast
6:34 PM 35.6 °F - 23.0 °F 60% 30.16 in 10.0 mi Calm Calm - N/A   Overcast
6:54 PM 35.6 °F - 23.0 °F 60% 30.16 in 10.0 mi Calm Calm - N/A   Overcast
7:15 PM 35.6 °F 30.7 °F 24.8 °F 65% 30.16 in 10.0 mi SSW 5.8 mph - N/A   Overcast
7:34 PM 35.6 °F 32.8 °F 24.8 °F 65% 30.16 in 10.0 mi WSW 3.5 mph - N/A   Overcast
7:54 PM 35.6 °F - 24.8 °F 65% 30.16 in 10.0 mi Calm Calm - N/A   Overcast
8:15 PM 35.6 °F - 24.8 °F 65% 30.16 in 10.0 mi Calm Calm - N/A   Overcast
8:34 PM 35.6 °F - 24.8 °F 65% 30.15 in 10.0 mi Calm Calm - N/A   Overcast
8:54 PM 35.6 °F - 24.8 °F 65% 30.14 in 10.0 mi Calm Calm - N/A   Overcast
9:14 PM 33.8 °F - 24.8 °F 70% 30.14 in 10.0 mi Calm Calm - N/A   Overcast
9:34 PM 33.8 °F - 26.6 °F 75% 30.14 in 10.0 mi Calm Calm - N/A   Overcast
9:55 PM 33.8 °F - 26.6 °F 75% 30.14 in 10.0 mi Calm Calm - N/A   Overcast
10:14 PM 33.8 °F - 26.6 °F 75% 30.14 in 10.0 mi Calm Calm - N/A   Overcast
10:34 PM 33.8 °F - 24.8 °F 70% 30.14 in 10.0 mi Calm Calm - N/A   Unknown
10:55 PM 33.8 °F - 24.8 °F 70% 30.14 in 10.0 mi Calm Calm - N/A   Unknown
11:14 PM 35.6 °F - 26.6 °F 70% 30.14 in 10.0 mi Calm Calm - N/A   Overcast
11:35 PM 33.8 °F - 24.8 °F 70% 30.14 in 10.0 mi Calm Calm - N/A   Overcast
11:54 PM 35.6 °F - 24.8 °F 65% 30.13 in 10.0 mi Calm Calm - N/A   Overcast